Location: Riverview Farm Park
(37.0930°N, 76.5291°W)
Time: 06:44:23
(UTC-05:00)

Envisat - Visible Passes

Search period start: 20 February 2018 00:00
Search period end: 02 March 2018 00:00
Orbit: 764 x 766 km, 98.2° (Epoch: 19 February)

Date Brightness Start Highest point End Pass type
(mag) Time Alt. Az. Time Alt. Az. Time Alt. Az.
20 Feb 2.8 19:30:01 10° SSE 19:35:04 75° ENE 19:40:09 10° N visible
20 Feb 6.0 21:13:31 10° WSW 21:14:35 11° W 21:15:38 10° WNW visible
21 Feb 3.6 18:54:03 10° SE 18:58:31 32° ENE 19:03:01 10° N visible
21 Feb 5.0 20:33:20 10° SSW 20:37:31 26° W 20:41:44 10° NW visible
22 Feb 4.6 18:19:23 10° E 18:22:11 15° ENE 18:24:58 10° NNE visible
22 Feb 3.4 19:55:39 10° S 20:00:39 61° W 20:05:41 10° NNW visible
23 Feb 3.0 19:19:00 10° SSE 19:23:58 58° ENE 19:28:57 10° N visible
23 Feb 5.8 21:00:41 10° WSW 21:03:19 14° W 21:05:58 10° WNW visible
24 Feb 3.9 18:43:21 10° ESE 18:47:28 26° ENE 18:51:38 10° NNE visible
24 Feb 4.6 20:21:46 10° SSW 20:26:19 33° W 20:30:53 10° NNW visible
25 Feb 3.0 19:44:26 10° S 19:49:30 78° WSW 19:54:36 10° NNW visible
26 Feb 3.2 19:08:04 10° SE 19:12:52 45° ENE 19:17:42 10° N visible
26 Feb 5.5 20:48:37 10° SW 20:52:05 18° W 20:55:33 10° NW visible
27 Feb 4.2 18:32:46 10° ESE 18:36:26 21° ENE 18:40:08 10° NNE visible
27 Feb 4.1 20:10:21 10° S 20:15:08 42° W 20:19:57 10° NNW visible
28 Feb 2.9 19:33:18 10° SSE 19:38:22 82° ENE 19:43:28 10° N visible
01 Mar 3.5 18:57:13 10° SE 19:01:48 36° ENE 19:06:24 10° N visible
01 Mar 5.1 20:36:51 10° SSW 20:40:51 23° W 20:44:53 10° NW visible
